CZ-6A DEB, 56614

Orbit data source: Space-Track

CZ-6A DEB, 56614 is space debris in SSO originally from a launch on Fri, 11 Nov 2022 UTC launched from the Taiyaun Space Center, China (TSC). Debris objects in space refer to the collection of defunct objects orbiting the Earth. Examples of debris include non-operational satellites, rocket bodies, and fragments generated from explosions, collisions, or faulty payload assembly.

Loading next visibility...
Identifier
56614, 2022-151AEN
Orbit
SSO
Country
Flag of CNCN / PRC
Related business
Manufacturer
SAST
Mission
Spacecraft
Bus & Motor
Unknown
Mass
Unknown
Launch date (UTC)
2022-11-11 (4 years ago)
Launch vehicle
Unknown
Launch site
Taiyaun Space Center, China (TSC)
Object type
Payload
Rocket body
Debris
Shape & HBR
Unknown shape, 0.1 m
Radar Cross Section
Small (<0.1 m²)

Expand to show TLE details & history
Last TLE update: 2 days ago

TLE from 2 days ago
0 CZ-6A DEB
1 56614U 22151AEN 26262.16877542  .00000685  00000-0  49952-3 0  9992
2 56614  98.8697 222.9840 0116190 156.0394 204.6237 13.96187720173283
Epoch: 2026-09-19T04:03Z
TLE epoch observation values (Epoch: 2026-09-19T04:03:02.196Z)
Latitude
0.00001°
Longitude
164.14367°
Altitude
987.036 km
Speed
7.319 km/s
True Right ascension
14h 51m 56s
True Declination
0° 00' 00"
Sunlit
Object was in daylight at epoch
Visualization orbit readout
Latitude
Unknown
Longitude
Unknown
Altitude
Unknown
Speed
Unknown
Apparent Right ascension
Unknown
Apparent Declination
Unknown
Sunlit
N/A
Visualization observer readout
Local Sidereal Time
02:03:52
Azimuth
Unknown
Elevation
Unknown
Doppler factor
Unknown
Orbital elements
Apogee altitude
988.838 km
Perigee altitude
819.61 km
Semi-major axis
7,282.361 km
Eccentricity
0.01162
Inclination
98.8697°
RAAN
222.984°
Arg. of periapsis
156.0394°
True anomaly
204.07619°
Mean anomaly
204.6237°
Eccentric anomaly
204.34923°
Mean motion
3.49249 °/min
Orbital period
103.08 mins
BSTAR
0.00049952
Loading maneuver chart data...
Computing Atmospheric mass density...
Loading historical data...
Loading historical data...
Loading historical data...
Loading historical data...
Loading historical data...
Loading historical data...
Loading historical data...

Documentation

Showing up to 5 results
|